This is the latest recevied weather packets stored in our database for station/object EB1GOD-1. If no packets are shown the sender has not sent any weather packets the latest 10 day(s).
| Time | Temp. | Humidity | Pressure | Rain* | Wind** | Luminosity | Snow |
|---|---|---|---|---|---|---|---|
| 1777852074 | 11.11° C | 91% | 1153.2 hPa | - | - | - | - |
| 1777851174 | 11.11° C | 90% | 1153.2 hPa | - | - | - | - |
| 1777850274 | 11.67° C | 91% | 1153.2 hPa | - | - | - | - |
| 1777849374 | 11.11° C | 91% | 1153.2 hPa | - | - | - | - |
| 1777848474 | 12.22° C | 89% | 1153.2 hPa | - | - | - | - |
| 1777847574 | 12.78° C | 91% | 1153.2 hPa | - | - | - | - |
| 1777846675 | 12.78° C | 91% | 1153.2 hPa | - | - | - | - |
| 1777845775 | 12.22° C | 91% | 1153.2 hPa | - | - | - | - |
| 1777844874 | 12.22° C | 96% | 1153.2 hPa | - | - | - | - |
| 1777843974 | 12.22° C | 92% | 1153.1 hPa | - | - | - | - |
| 1777843074 | 12.78° C | 90% | 1153 hPa | - | - | - | - |
| 1777842174 | 11.67° C | 91% | 1152.9 hPa | - | - | - | - |
| 1777841260 | 12.78° C | 92% | 1152.8 hPa | - | - | - | - |
| 1777840357 | 13.33° C | 90% | 1152.7 hPa | - | - | - | - |
| 1777839457 | 13.33° C | 91% | 1152.5 hPa | - | - | - | - |
| 1777838556 | 13.33° C | 91% | 1152.4 hPa | - | - | - | - |
| 1777837656 | 12.78° C | 93% | 1152.3 hPa | - | - | - | - |
| 1777836756 | 12.22° C | 90% | 1152.1 hPa | - | - | - | - |
| 1777835856 | 12.78° C | 89% | 1152 hPa | - | - | - | - |
| 1777834956 | 13.33° C | 92% | 1151.8 hPa | - | - | - | - |
| 1777834056 | 12.78° C | 90% | 1151.8 hPa | - | - | - | - |
| 1777833156 | 12.78° C | 89% | 1151.7 hPa | - | - | - | - |
| 1777832256 | 13.89° C | 87% | 1151.7 hPa | - | - | - | - |
| 1777831356 | 13.89° C | 84% | 1151.7 hPa | - | - | - | - |
| 1777830456 | 13.89° C | 83% | 1151.5 hPa | - | - | - | - |
* Rain since midnight (hover to see other rain measurements)
** Current wind speed in m/s (hover to see current wind gust speed)